DW4611 Weather Reports


Display with metric or nautical units.
time (UTC)temp
F
wind
direction
speed
MPH
gust
MPH
rain 1hr
in
rain 24hr
in
rain mn
in
humidity
%
barometer
mb
20191121101558 49 0.0 0.0 0.00 0.05 0.05 95 1010.9
20191121100115 49 0.0 0.0 0.00 0.05 0.05 96 1011.0
20191121094558 49 0.0 0.0 0.00 0.07 0.05 96 1011.0
20191121093105 49 0.0 0.0 0.00 0.07 0.05 96 1010.9
20191121091535 49 0.0 0.0 0.00 0.07 0.05 97 1010.9
20191121090056 49 0.0 0.0 0.00 0.07 0.05 97 1010.7
20191121084547 46 0.0 0.0 0.00 0.07 0.05 96 1010.7
20191121083049 46 0.0 0.0 0.00 0.07 0.05 96 1010.9
20191121081556 46 0.0 0.0 0.00 0.07 0.05 96 1010.8
20191121080053 45 0.0 0.0 0.00 0.07 0.05 96 1010.8
20191121074529 45 0.0 0.0 0.00 0.07 0.05 96 1010.7
20191121073037 45 0.0 0.0 0.00 0.07 0.05 96 1010.6
20191121071535 45 0.0 0.0 0.00 0.07 0.05 96 1010.5
20191121070048 45 340 0.0 0.0 0.00 0.07 0.05 96 1010.4
20191121064603 45 340 0.0 0.0 0.00 0.07 0.05 96 1010.4
20191121063016 45 0.0 0.0 0.02 0.07 0.05 96 1010.3
20191121061545 45 0.0 0.0 0.02 0.07 0.05 95 1010.2
20191121060014 45 0.0 0.0 0.02 0.07 0.05 95 1010.2
20191121054503 45 0.0 0.0 0.02 0.07 0.05 95 1010.0
20191121053229 45 0.0 0.0 0.00 0.05 0.02 95 1010.0
20191121051645 45 0.0 0.0 0.00 0.05 0.02 95 1010.0
20191121050228 45 0.0 0.0 0.00 0.05 0.02 95 1010.0
20191121044823 45 0.0 0.0 0.01 0.05 0.02 95 1009.9
20191121043244 45 0.0 0.0 0.02 0.05 0.02 95 1009.8
20191121041632 45 0.0 0.0 0.02 0.05 0.02 95 1009.9
20191121040321 45 0.0 0.0 0.02 0.05 0.02 94 1009.9
20191121034547 45 0.0 0.0 0.02 0.04 0.02 95 1010.0
20191121033118 45 0.0 0.0 0.01 0.03 0.01 94 1010.0
20191121031627 45 0.0 0.0 0.01 0.03 0.01 94 1010.1
20191121030044 45 0.0 0.0 0.01 0.03 0.01 94 1010.0
20191121024605 45 0.0 0.0 0.00 0.04 0.00 94 1010.1
20191121023036 45 0.0 0.0 0.00 0.04 0.00 94 1010.1
20191121021525 45 0.0 0.0 0.00 0.04 0.00 93 1010.2
20191121020027 45 0.0 0.0 0.00 0.04 0.00 93 1010.2
20191121014558 45 0.0 0.0 0.00 0.06 0.00 93 1010.2
20191121013014 45 0.0 0.0 0.00 0.06 0.00 93 1010.2
20191121011504 45 0.0 0.0 0.00 0.06 0.00 93 1010.1
20191121010141 46 0.0 0.0 0.00 0.06 0.00 93 1010.3
20191121004649 46 0.0 0.0 0.00 0.06 0.00 93 1010.3
20191121003145 46 0.0 0.0 0.00 0.06 0.00 93 1010.2
20191121001626 46 0.0 0.0 0.00 0.06 0.00 92 1010.4
20191121000131 46 0.0 0.0 0.00 0.06 0.00 92 1010.4
20191120234720 46 0.0 0.0 0.00 0.07 0.00 92 1010.4
20191120233054 46 0.0 0.0 0.00 0.07 0.00 92 1010.5
20191120231621 47 0.0 0.0 0.00 0.07 0.00 91 1010.6
20191120230100 46 0.0 0.0 0.00 0.07 0.00 90 1010.8
20191120224550 46 0.0 0.0 0.00 0.08 0.07 90 1010.7
20191120223050 46 0.0 0.0 0.00 0.08 0.07 90 1010.7
20191120221514 46 0.0 0.0 0.00 0.08 0.07 91 1010.6
20191120220020 46 0.0 0.0 0.00 0.08 0.07 91 1010.8
20191120214504 46 0.0 0.0 0.00 0.08 0.07 92 1010.7
20191120213154 46 0.0 0.0 0.00 0.08 0.07 93 1010.7
20191120211744 46 0.0 0.0 0.00 0.08 0.07 93 1010.8
20191120210146 46 0.0 0.0 0.00 0.08 0.07 93 1010.8
20191120204559 46 0.0 0.0 0.00 0.09 0.07 92 1010.8
20191120203144 47 0.0 0.0 0.00 0.09 0.07 92 1010.8
20191120201624 47 0.0 0.0 0.00 0.09 0.07 92 1010.8
20191120200046 47 0.0 0.0 0.00 0.09 0.07 91 1010.9
20191120194541 48 0.0 0.0 0.00 0.09 0.07 91 1010.9
20191120193038 48 0.0 0.0 0.00 0.09 0.07 91 1011.0
20191120191554 48 0.0 0.0 0.00 0.09 0.07 91 1011.1
20191120190032 48 0.0 0.0 0.00 0.09 0.07 91 1011.1
20191120184523 48 0.0 0.0 0.00 0.09 0.07 90 1011.0
20191120183003 48 0.0 0.0 0.00 0.09 0.07 89 1010.9
20191120181718 48 0.0 0.0 0.00 0.09 0.07 88 1010.7
20191120180223 48 0.0 0.0 0.00 0.09 0.07 88 1010.6
20191120174630 48 0.0 0.0 0.00 0.09 0.07 89 1010.6
20191120173209 49 0.0 0.0 0.00 0.09 0.07 90 1010.6
20191120171558 49 0.0 0.0 0.00 0.09 0.07 90 1010.8
20191120170058 49 0.0 0.0 0.00 0.09 0.07 90 1011.0
20191120164630 49 0.0 0.0 0.00 0.09 0.07 89 1011.1
20191120163144 50 0.0 0.0 0.00 0.09 0.07 89 1011.0
20191120161620 50 0.0 0.0 0.00 0.09 0.07 89 1011.0
20191120160123 50 0.0 0.0 0.00 0.09 0.07 88 1011.1
20191120154623 51 302 0.0 0.0 0.00 0.10 0.07 88 1011.1
20191120153129 51 302 0.0 0.0 0.00 0.10 0.07 87 1010.8
20191120151619 51 279 0.0 0.0 0.00 0.10 0.07 86 1011.0
20191120150057 52 164 0.0 0.0 0.00 0.10 0.07 86 1011.1
20191120144552 52 164 0.0 0.0 0.00 0.13 0.07 84 1011.1
20191120143047 52 164 0.0 0.0 0.00 0.13 0.07 84 1011.1
20191120141546 52 164 0.0 0.0 0.00 0.13 0.07 83 1011.1
20191120140105 52 164 0.0 0.0 0.00 0.13 0.07 82 1011.2
20191120133103 54 168 0.0 1.0 0.00 0.20 0.07 79 1011.4
20191120131532 55 159 0.0 1.0 0.00 0.20 0.07 80 1011.5
20191120130036 55 158 0.0 1.0 0.00 0.20 0.07 80 1011.7
20191120124527 55 165 0.0 0.0 0.00 0.30 0.07 82 1011.8
20191120123024 55 158 0.0 1.0 0.00 0.30 0.07 77 1012.0
20191120121531 55 160 0.0 1.0 0.00 0.30 0.07 75 1012.0
20191120120036 53 186 0.0 0.0 0.00 0.30 0.07 79 1012.2
20191120114507 52 186 0.0 0.0 0.00 0.44 0.07 79 1012.3
20191120113005 51 242 0.0 0.0 0.00 0.44 0.07 77 1012.5
20191120111645 51 279 0.0 0.0 0.00 0.44 0.07 78 1012.6
20191120110147 50 274 0.0 0.0 0.00 0.44 0.07 80 1012.7
20191120104715 50 273 0.0 9.0 0.00 0.57 0.07 80 1012.8
20191120103202 49 290 5.0 10.0 0.01 0.57 0.07 79 1013.0